This demonstration page uses our WeatherBlox Daily Observations layout. Learn more.

Left ArrowRight Arrow

Hourly Observations for September 24, 2019

Temp ( °F °C ) Dew Point ( °F °C ) Humidity (%) Winds ( mph kmh ) Pressure ( in mb ) Visibility ( mi km ) Precip ( " mm )
12:51 am 00:51 Clear 64 17.8 55 12.8 73 73 NW 9 15 29.89 1012 10 16 0.00 0.00
1:51 am 01:51 Partly Cloudy 65 18.3 55 12.8 70 70 NNW 10 17 29.88 1012 10 16 0.00 0.00
2:51 am 02:51 Partly Cloudy 63 17.2 56 13.3 78 78 SSE 7 11 29.90 1013 10 16 0.00 0.00
3:51 am 03:51 Clear 63 17.2 57 13.9 81 81 SE 5 7 29.87 1012 10 16 0.00 0.00
4:51 am 04:51 Clear 63 17.2 57 13.9 81 81 ESE 6 9 29.87 1012 10 16 0.00 0.00
5:51 am 05:51 Clear 63 17.2 58 14.4 84 84 SSE 6 9 29.90 1013 10 16 0.00 0.00
6:51 am 06:51 Mostly Cloudy 64 17.8 59 15 84 84 SSE 6 9 29.93 1013 10 16 0.00 0.00
7:51 am 07:51 Mostly Cloudy 63 17.2 60 15.6 90 90 W 13 20 29.95 1014 10 16 0.00 0.00
8:51 am 08:51 Cloudy 64 17.8 60 15.6 87 87 Calm 29.99 1016 10 16 0.00 0.00
9:51 am 09:51 Cloudy with Light Rain 63 17.2 62 16.7 97 97 ENE 5 7 30.01 1016 10 16 0.02 0.51
10:51 am 10:51 Cloudy with Light Rain 64 17.8 62 16.7 93 93 ENE 5 7 30.01 1016 10 16 0.11 2.79
11:51 am 11:51 Cloudy with Light Rain 64 17.8 62 16.7 93 93 W 8 13 30.00 1016 7 11 0.05 1.27
12:26 pm 12:26 Cloudy with Light Rain 64 17.8 63 17.2 96 96 W 10 17 29.98 1015 10 16 0.00 0.00
12:51 pm 12:51 Cloudy with Light Rain 64 17.8 63 17.2 96 96 W 7 11 30.00 1016 10 16 0.01 0.25
12:59 pm 12:59 Cloudy with Light Rain 64 17.8 62 16.7 93 93 W 7 11 29.98 1015 10 16 0.00 0.00
1:51 pm 13:51 Cloudy with Light Rain 64 17.8 62 16.7 93 93 SE 3 6 29.95 1014 10 16 0.01 0.25
2:51 pm 14:51 Cloudy 66 18.9 64 17.8 93 93 SE 8 13 29.91 1013 10 16 0.00 0.00
3:51 pm 15:51 Mostly Cloudy 67 19.4 63 17.2 87 87 SSE 12 19 29.91 1013 10 16 0.00 0.00
4:51 pm 16:51 Mostly Sunny 68 20 63 17.2 84 84 SE 10 17 29.87 1011 10 16 0.00 0.00
5:51 pm 17:51 Sunny 68 20 61 16.1 78 78 SSE 14 22 29.87 1011 10 16 0.00 0.00
6:51 pm 18:51 Clear 65 18.3 61 16.1 87 87 ESE 6 9 29.86 1011 10 16 0.00 0.00
7:51 pm 19:51 Clear 65 18.3 62 16.7 90 90 SW 7 11 29.86 1011 10 16 0.00 0.00
8:51 pm 20:51 Clear 64 17.8 62 16.7 93 93 N 7 11 29.87 1012 10 16 0.00 0.00
9:51 pm 21:51 Clear 63 17.2 61 16.1 93 93 NNE 6 9 29.88 1012 10 16 0.00 0.00
10:51 pm 22:51 Clear 62 16.7 61 16.1 96 96 NE 5 7 29.88 1012 10 16 0.00 0.00
11:51 pm 23:51 Clear 61 16.1 60 15.6 97 97 E 6 9 29.89 1012 10 16 0.00 0.00

Powered by AerisWeather